Weather History for Litchfield, MN

Change the Weather History Date:

Friday, March 16, 2012

  Actual Average Record
Temperature  
Mean Temperature 55 °F -  
Max Temperature 77 °F 39 °F 77 °F (2012)
Min Temperature 33 °F 18 °F -5 °F (1951)
Degree Days  
Heating Degree Days 10    
Growing Degree Days 5 (Base 50)    
Moisture  
Dew Point 42 °F    
Average Humidity 71    
Maximum Humidity 88    
Minimum Humidity 47    
Precipitation  
Precipitation 0.00 in - - ()
Sea Level Pressure  
Sea Level Pressure 29.89 in    
Wind  
Wind Speed 3 mph (ESE)    
Max Wind Speed 8 mph    
Max Gust Speed -    
Visibility 9 miles    
Events      
Averages and records for this station are not official NWS values.
T = Trace of Precipitation, MM = Missing Value Source: NWS Daily Summary

Daily Weather History Graph

Daily Weather History Graph

Search for Another Location

Airport:

Trip Planner

Search our weather history database for the weather conditions in past years. The results will help you decide how hot, cold, wet, or windy it might be!

Date:

Astronomy

Mar. 16, 2012 Rise Set
Actual Time 7:27 AM CDT 7:26 PM CDT
Civil Twilight 6:58 AM CDT 7:55 PM CDT
Nautical Twilight 6:24 AM CDT 8:29 PM CDT
Astronomical Twilight 5:49 AM CDT 9:04 PM CDT
Moon 4:00 AM CDT (3/16) 1:33 PM CDT (3/16)
Length of Visible Light 12h 56m
Length of Day
11h 58m
Waning Crescent, 32% of the Moon is Illuminated
Mar 16
Waning Crescent
Mar 22
New
Mar 30
First Quarter
Apr 6
Full
Apr 13
Last Quarter

Hourly Weather History & Observations

Time (CDT) Temp. Windchill Dew Point Humidity Pressure Visibility Wind Dir Wind Speed Gust Speed Precip Events Conditions
12:13 AM 42.8 °F - 37.4 °F 81% 29.96 in 10.0 mi Calm Calm - N/A   Clear
12:32 AM 42.8 °F - 37.4 °F 81% 29.97 in 10.0 mi Calm Calm - N/A   Clear
12:53 AM 42.8 °F - 37.4 °F 81% 29.96 in 10.0 mi Calm Calm - N/A   Clear
1:13 AM 42.8 °F - 35.6 °F 76% 29.96 in 10.0 mi Calm Calm - N/A   Clear
1:32 AM 41.0 °F - 37.4 °F 87% 29.96 in 10.0 mi Calm Calm - N/A   Clear
1:53 AM 41.0 °F - 35.6 °F 81% 29.96 in 10.0 mi Calm Calm - N/A   Clear
2:13 AM 42.8 °F - 35.6 °F 76% 29.96 in 10.0 mi Calm Calm - N/A   Clear
2:32 AM 42.8 °F - 35.6 °F 76% 29.96 in 10.0 mi Calm Calm - N/A   Clear
2:53 AM 41.0 °F 38.0 °F 33.8 °F 76% 29.95 in 10.0 mi ENE 4.6 mph - N/A   Clear
3:32 AM 41.0 °F 38.0 °F 33.8 °F 76% 29.94 in 10.0 mi ENE 4.6 mph - N/A   Clear
3:53 AM 41.0 °F 39.0 °F 32.0 °F 70% 29.93 in 10.0 mi NE 3.5 mph - N/A   Clear
4:13 AM 41.0 °F - 32.0 °F 70% 29.93 in 10.0 mi Calm Calm - N/A   Clear
4:33 AM 39.2 °F 37.0 °F 32.0 °F 75% 29.93 in 10.0 mi ENE 3.5 mph - N/A   Clear
4:53 AM 37.4 °F - 32.0 °F 81% 29.93 in 10.0 mi Calm Calm - N/A   Clear
5:13 AM 35.6 °F - 30.2 °F 81% 29.93 in 10.0 mi Calm Calm - N/A   Clear
5:33 AM 37.4 °F 34.9 °F 30.2 °F 75% 29.94 in 10.0 mi NNE 3.5 mph - N/A   Clear
5:53 AM 35.6 °F 32.8 °F 30.2 °F 81% 29.93 in 10.0 mi NNE 3.5 mph - N/A   Clear
6:13 AM 37.4 °F 34.9 °F 28.4 °F 70% 29.93 in 10.0 mi NE 3.5 mph - N/A   Clear
6:33 AM 37.4 °F 34.9 °F 28.4 °F 70% 29.93 in 10.0 mi East 3.5 mph - N/A   Clear
6:53 AM 33.8 °F 29.6 °F 28.4 °F 81% 29.93 in 10.0 mi East 4.6 mph - N/A   Clear
7:13 AM 33.8 °F - 28.4 °F 81% 29.93 in 10.0 mi Calm Calm - N/A   Clear
7:33 AM 33.8 °F 30.8 °F 28.4 °F 81% 29.93 in 10.0 mi NE 3.5 mph - N/A   Clear
7:53 AM 35.6 °F 32.8 °F 28.4 °F 75% 29.92 in 10.0 mi East 3.5 mph - N/A   Clear
8:13 AM 37.4 °F 34.9 °F 30.2 °F 75% 29.92 in 10.0 mi East 3.5 mph - N/A   Clear
8:33 AM 39.2 °F 37.0 °F 30.2 °F 70% 29.92 in 10.0 mi East 3.5 mph - N/A   Clear
8:53 AM 39.2 °F 37.0 °F 32.0 °F 75% 29.91 in 10.0 mi East 3.5 mph - N/A   Clear
9:13 AM 41.0 °F - 32.0 °F 70% 29.92 in 10.0 mi Calm Calm - N/A   Clear
9:33 AM 42.8 °F 40.1 °F 33.8 °F 70% 29.91 in 10.0 mi ESE 4.6 mph - N/A   Mostly Cloudy
9:53 AM 46.4 °F 44.3 °F 37.4 °F 71% 29.91 in 10.0 mi ESE 4.6 mph - N/A   Overcast
10:14 AM 48.2 °F - 37.4 °F 66% 29.90 in 10.0 mi ESE 4.6 mph - N/A   Overcast
10:33 AM 48.2 °F - 39.2 °F 71% 29.91 in 10.0 mi SE 3.5 mph - N/A   Overcast
10:53 AM 50.0 °F - 42.8 °F 76% 29.91 in 7.0 mi ESE 3.5 mph - N/A   Overcast
11:13 AM 51.8 °F - 46.4 °F 82% 29.91 in 5.0 mi SE 4.6 mph - N/A   Overcast
11:33 AM 51.8 °F - 48.2 °F 88% 29.90 in 4.0 mi SE 5.8 mph - N/A   Overcast
11:53 AM 53.6 °F - 50.0 °F 88% 29.90 in 4.0 mi SSE 4.6 mph - N/A   Overcast
12:13 PM 55.4 °F - 51.8 °F 88% 29.89 in 4.0 mi Calm Calm - N/A   Overcast
12:33 PM 57.2 °F - 53.6 °F 88% 29.89 in 4.0 mi South 4.6 mph - N/A   Mostly Cloudy
12:53 PM 57.2 °F - 53.6 °F 88% 29.88 in 4.0 mi SSE 5.8 mph - N/A   Haze
1:14 PM 57.2 °F - 53.6 °F 88% 29.88 in 3.0 mi SE 8.1 mph - N/A   Scattered Clouds
1:33 PM 60.8 °F - 53.6 °F 77% 29.87 in 5.0 mi SE 6.9 mph - N/A   Haze
1:53 PM 62.6 °F - 55.4 °F 77% 29.85 in 7.0 mi SE 6.9 mph - N/A   Clear
2:13 PM 66.2 °F - 55.4 °F 68% 29.84 in 5.0 mi SE 4.6 mph - N/A   Haze
2:33 PM 68.0 °F - 53.6 °F 60% 29.83 in 7.0 mi SSE 4.6 mph - N/A   Clear
2:53 PM 69.8 °F - 51.8 °F 53% 29.83 in 7.0 mi SSE 5.8 mph - N/A   Clear
3:13 PM 73.4 °F - 53.6 °F 50% 29.82 in 10.0 mi SSE 5.8 mph - N/A   Clear
3:33 PM 73.4 °F - 55.4 °F 53% 29.81 in 7.0 mi SSE 6.9 mph - N/A   Clear
3:53 PM 73.4 °F - 55.4 °F 53% 29.81 in 10.0 mi SSE 6.9 mph - N/A   Clear
4:13 PM 75.2 °F - 57.2 °F 53% 29.80 in 10.0 mi SSE 4.6 mph - N/A   Clear
4:33 PM 75.2 °F - 57.2 °F 53% 29.79 in 10.0 mi SSE 5.8 mph - N/A   Clear
4:53 PM 77.0 °F - 55.4 °F 47% 29.78 in 10.0 mi SSE 4.6 mph - N/A   Clear
5:13 PM 75.2 °F - 55.4 °F 50% 29.78 in 10.0 mi SSE 4.6 mph - N/A   Clear
5:33 PM 75.2 °F - 55.4 °F 50% 29.77 in 10.0 mi SSE 8.1 mph - N/A   Clear
5:53 PM 75.2 °F - 55.4 °F 50% 29.77 in 10.0 mi SSE 8.1 mph - N/A   Clear
6:13 PM 73.4 °F - 55.4 °F 53% 29.77 in 10.0 mi SSE 6.9 mph - N/A   Clear
6:32 PM 73.4 °F - 55.4 °F 53% 29.77 in 10.0 mi SSE 5.8 mph - N/A   Clear
6:53 PM 71.6 °F - 55.4 °F 57% 29.77 in 10.0 mi SSE 6.9 mph - N/A   Clear
7:13 PM 71.6 °F - 55.4 °F 57% 29.77 in 10.0 mi SSE 5.8 mph - N/A   Clear
7:33 PM 69.8 °F - 55.4 °F 60% 29.77 in 10.0 mi SE 5.8 mph - N/A   Clear
7:53 PM 64.4 °F - 53.6 °F 68% 29.77 in 10.0 mi SE 5.8 mph - N/A   Clear
8:13 PM 66.2 °F - 55.4 °F 68% 29.77 in 10.0 mi SE 8.1 mph - N/A   Clear
8:32 PM 66.2 °F - 55.4 °F 68% 29.77 in 10.0 mi SE 6.9 mph - N/A   Clear
8:53 PM 64.4 °F - 55.4 °F 73% 29.77 in 10.0 mi SE 4.6 mph - N/A   Clear
9:13 PM 62.6 °F - 55.4 °F 77% 29.77 in 10.0 mi SE 5.8 mph - N/A   Clear
9:33 PM 64.4 °F - 53.6 °F 68% 29.77 in 10.0 mi SE 5.8 mph - N/A   Clear
9:53 PM 62.6 °F - 53.6 °F 72% 29.78 in 10.0 mi SE 5.8 mph - N/A   Clear
10:13 PM 62.6 °F - 53.6 °F 72% 29.78 in 10.0 mi SSE 4.6 mph - N/A   Clear
10:33 PM 60.8 °F - 53.6 °F 77% 29.78 in 10.0 mi SSE 4.6 mph - N/A   Clear
10:53 PM 62.6 °F - 53.6 °F 72% 29.78 in 10.0 mi SSE 4.6 mph - N/A   Clear
11:13 PM 62.6 °F - 53.6 °F 72% 29.77 in 10.0 mi SSE 4.6 mph - N/A   Clear
11:33 PM 60.8 °F - 53.6 °F 77% 29.77 in 10.0 mi SSE 3.5 mph - N/A   Clear
11:53 PM 60.8 °F - 55.4 °F 82% 29.77 in 10.0 mi Calm Calm - N/A   Clear